STARLINK-38031, 69827

Orbit data source: Space-Track

STARLINK-38031, 69827 is a payload satellite owned by SpaceX/Seattle (US) in LEO that was launched on Sun, 05 Jul 2026 UTC via an FALCON 9 launch vehicle from the Air Force Eastern Test Range (AFETR). Payload-class satellites include a variety of spacecraft equipped with specific instruments for various scientific and technological missions. These include communications satellites like Starlink; space stations such as the ISS; scientific satellites like the Hubble; Earth observation satellites from companies like Planet Labs, Umbra, and HawkEye 360; GPS; miniature CubeSats for education and research; and military/defense satellites.

Loading next visibility...
Identifier
69827, 2026-154J
Orbit
LEO
Country
Flag of USUS
Related business
Manufacturer
SpaceX/Seattle
Mission
Operational spacecraft
Bus & Motor
STARLINK V2MO, Unknown motor
Mass
575 kg wet, ~530 kg dry
Launch date (UTC)
2026-07-05 (1 month ago)
Launch vehicle
FALCON 9
Launch site
Air Force Eastern Test Range (AFETR)
Object type
Payload
Rocket body
Debris
Shape & HBR
BOX + PAN, 17.7 m
Radar Cross Section
Large (>1 m²)

Expand to show TLE details & history
Last TLE update: 12 hours ago

TLE from 12 hours ago
0 STARLINK-38031
1 69827U 26154J   26228.58335648  .00057902  00000-0  16599-2 0  9997
2 69827  53.1584 135.2471 0001156 112.2568 242.4133 15.35366419  6021
Epoch: 2026-08-16T14:00Z
TLE epoch observation values (Epoch: 2026-08-16T14:00:01.999Z)
Latitude
-4.37926°
Longitude
-43.01006°
Altitude
461.773 km
Speed
7.636 km/s
True Right ascension
08h 47m 54s
True Declination
-4° 21' 07"
Sunlit
Object was in daylight at epoch
Visualization orbit readout
Latitude
Unknown
Longitude
Unknown
Altitude
Unknown
Speed
Unknown
Apparent Right ascension
Unknown
Apparent Declination
Unknown
Sunlit
N/A
Visualization observer readout
Local Sidereal Time
16:17:05
Azimuth
Unknown
Elevation
Unknown
Doppler factor
Unknown
Orbital elements
Apogee altitude
460.88 km
Perigee altitude
459.299 km
Semi-major axis
6,838.227 km
Eccentricity
0.00012
Inclination
53.1584°
RAAN
135.2471°
Arg. of periapsis
112.2568°
True anomaly
242.40156°
Mean anomaly
242.4133°
Eccentric anomaly
242.40743°
Mean motion
3.8382 °/min
Orbital period
93.79 mins
BSTAR
0.0016599
Loading maneuver chart data...
Computing Atmospheric mass density...
Loading historical data...
Loading historical data...
Loading historical data...
Loading historical data...
Loading historical data...
Loading historical data...
Loading historical data...

Documentation

Showing up to 5 results
|